Вернуться в каталог

STARLINK-34055

АктивенСвязьVLEO
NORAD 63819·PAYLOAD·🇺🇸 United States

Запущен May 4, 2025 с Cape Canaveral Space Force Station

Loading…

Ближайшие Пролёты (ближайшие 24 часа)

TLE

СвежийSource: CelesTrak SupGP

Эпоха: Sep 15, 2026, 04:06 UTC

1 63819C 25092R   26258.17131944  .00488700  00000+0  57323-2 0  2584
2 63819  42.9995 169.8775 0019512 209.4184 305.6914 15.60098741    16

Отслеживайте STARLINK-34055 в реальном времени с AllMySat

Download on the App Store